• En España
  • Lista de países
  • Para 7 días
  • Temperatura del agua
  • Mapa Satelital
  • El tiempo en el mapa
  • Informadores
  • user-avatar
    Iniciar sesión

    Tiempo cada hora Karak

    Hoy, 19 Septiembre, Miércoles

    Tiempo Temperatura Precipitaciones Viento Presión Humedad
    00:00 +23°C° 0 mm 2 mps 680 mmHg 61%
    01:00 +23°C° 0 mm 2 mps 680 mmHg 64%
    02:00 +21°C° 0 mm 2 mps 680 mmHg 65%
    03:00 +21°C° 0 mm 2 mps 680 mmHg 66%
    04:00 +20°C° 0 mm 2 mps 680 mmHg 68%
    05:00 +20°C° 0 mm 2 mps 680 mmHg 69%
    06:00 +21°C° 0 mm 2 mps 680 mmHg 62%
    07:00 +23°C° 0 mm 2 mps 681 mmHg 55%
    08:00 +24°C° 0 mm 2 mps 681 mmHg 47%
    09:00 +26°C° 0 mm 3 mps 682 mmHg 41%
    10:00 +27°C° 0 mm 3 mps 682 mmHg 34%
    11:00 +29°C° 0 mm 3 mps 682 mmHg 28%
    12:00 +29°C° 0 mm 3 mps 682 mmHg 26%
    13:00 +30°C° 0 mm 3 mps 682 mmHg 24%
    14:00 +31°C° 0 mm 3 mps 682 mmHg 21%
    15:00 +30°C° 0 mm 4 mps 681 mmHg 23%
    16:00 +30°C° 0 mm 4 mps 681 mmHg 24%
    17:00 +29°C° 0 mm 4 mps 681 mmHg 26%
    18:00 +28°C° 0 mm 4 mps 681 mmHg 30%
    19:00 +27°C° 0 mm 3 mps 681 mmHg 35%
    20:00 +26°C° 0 mm 3 mps 681 mmHg 40%
    21:00 +25°C° 0 mm 3 mps 681 mmHg 44%
    22:00 +25°C° 0 mm 2 mps 681 mmHg 47%
    23:00 +24°C° 0 mm 2 mps 681 mmHg 51%

    Mañana, 20 Septiembre, Jueves

    Tiempo Temperatura Precipitaciones Viento Presión Humedad
    00:00 +23°C° 0 mm 2 mps 681 mmHg 55%
    01:00 +23°C° 0 mm 1 mps 681 mmHg 58%
    02:00 +22°C° 0 mm 1 mps 681 mmHg 61%
    03:00 +22°C° 0 mm 1 mps 681 mmHg 63%
    04:00 +21°C° 0 mm 1 mps 681 mmHg 66%
    05:00 +21°C° 0 mm 1 mps 681 mmHg 68%
    06:00 +22°C° 0 mm 1 mps 681 mmHg 61%
    07:00 +23°C° 0 mm 1 mps 682 mmHg 54%
    08:00 +24°C° 0 mm 1 mps 682 mmHg 47%
    09:00 +26°C° 0 mm 1 mps 682 mmHg 40%
    10:00 +27°C° 0 mm 2 mps 682 mmHg 33%
    11:00 +29°C° 0 mm 2 mps 682 mmHg 26%
    12:00 +30°C° 0 mm 2 mps 682 mmHg 24%
    13:00 +31°C° 0 mm 2 mps 682 mmHg 21%
    14:00 +31°C° 0 mm 2 mps 682 mmHg 19%
    15:00 +31°C° 0 mm 3 mps 682 mmHg 20%
    16:00 +31°C° 0 mm 3 mps 681 mmHg 21%
    17:00 +30°C° 0 mm 4 mps 681 mmHg 21%
    18:00 +29°C° 0 mm 4 mps 681 mmHg 26%
    19:00 +28°C° 0 mm 3 mps 681 mmHg 30%
    20:00 +27°C° 0 mm 3 mps 681 mmHg 35%
    21:00 +26°C° 0 mm 3 mps 681 mmHg 39%
    22:00 +25°C° 0 mm 2 mps 681 mmHg 43%
    23:00 +24°C° 0 mm 2 mps 681 mmHg 47%

    Pasado mañana, 21 Septiembre, Viernes

    Tiempo Temperatura Precipitaciones Viento Presión Humedad
    00:00 +24°C° 0 mm 2 mps 681 mmHg 49%
    01:00 +23°C° 0 mm 2 mps 681 mmHg 52%
    02:00 +23°C° 0 mm 2 mps 681 mmHg 54%
    03:00 +21°C° 0 mm 2 mps 681 mmHg 56%
    04:00 +22°C° 0 mm 1 mps 681 mmHg 58%
    05:00 +21°C° 0 mm 1 mps 681 mmHg 60%
    06:00 +22°C° 0 mm 1 mps 681 mmHg 54%
    07:00 +23°C° 0 mm 1 mps 681 mmHg 48%
    08:00 +25°C° 0 mm 1 mps 682 mmHg 43%
    09:00 +26°C° 0 mm 1 mps 682 mmHg 36%
    10:00 +28°C° 0 mm 2 mps 682 mmHg 30%
    11:00 +29°C° 0 mm 2 mps 682 mmHg 24%
    12:00 +30°C° 0 mm 2 mps 682 mmHg 23%
    13:00 +31°C° 0 mm 2 mps 682 mmHg 21%
    14:00 +32°C° 0 mm 2 mps 681 mmHg 20%
    15:00 +31°C° 0 mm 3 mps 681 mmHg 20%
    16:00 +32°C° 0 mm 4 mps 681 mmHg 21%
    17:00 +32°C° 0 mm 4 mps 681 mmHg 21%
    18:00 +29°C° 0 mm 4 mps 681 mmHg 25%
    19:00 +28°C° 0 mm 3 mps 681 mmHg 29%
    20:00 +27°C° 0 mm 3 mps 681 mmHg 32%
    21:00 +26°C° 0 mm 3 mps 681 mmHg 37%
    22:00 +25°C° 0 mm 2 mps 681 mmHg 41%
    23:00 +25°C° 0 mm 2 mps 681 mmHg 45%

    22 Septiembre, Sábado

    Tiempo Temperatura Precipitaciones Viento Presión Humedad
    00:00 +24°C° 0 mm 2 mps 681 mmHg 48%
    01:00 +23°C° 0 mm 2 mps 681 mmHg 51%
    02:00 +23°C° 0 mm 1 mps 681 mmHg 53%
    03:00 +22°C° 0 mm 1 mps 681 mmHg 55%
    04:00 +22°C° 0 mm 1 mps 681 mmHg 56%
    05:00 +22°C° 0 mm 1 mps 681 mmHg 58%
    06:00 +23°C° 0 mm 1 mps 681 mmHg 53%
    07:00 +24°C° 0 mm 1 mps 682 mmHg 48%
    08:00 +25°C° 0 mm 2 mps 682 mmHg 43%
    09:00 +26°C° 0 mm 2 mps 682 mmHg 38%
    10:00 +28°C° 0 mm 2 mps 682 mmHg 33%
    11:00 +29°C° 0 mm 2 mps 682 mmHg 27%
    12:00 +30°C° 0 mm 2 mps 682 mmHg 26%
    13:00 +31°C° 0 mm 2 mps 682 mmHg 24%
    14:00 +32°C° 0 mm 2 mps 681 mmHg 22%
    15:00 +31°C° 0 mm 3 mps 681 mmHg 22%
    16:00 +31°C° 0 mm 3 mps 681 mmHg 23%
    17:00 +32°C° 0 mm 4 mps 681 mmHg 24%
    18:00 +29°C° 0 mm 3 mps 681 mmHg 28%
    19:00 +28°C° 0 mm 3 mps 682 mmHg 31%
    20:00 +27°C° 0 mm 3 mps 682 mmHg 35%
    21:00 +26°C° 0 mm 3 mps 682 mmHg 41%
    22:00 +25°C° 0 mm 2 mps 682 mmHg 46%
    23:00 +25°C° 0 mm 2 mps 682 mmHg 51%

    23 Septiembre, Domingo

    Tiempo Temperatura Precipitaciones Viento Presión Humedad
    00:00 +24°C° 0 mm 2 mps 682 mmHg 55%
    01:00 +23°C° 0 mm 2 mps 682 mmHg 59%
    02:00 +23°C° 0 mm 2 mps 681 mmHg 63%
    03:00 +21°C° 0 mm 2 mps 681 mmHg 65%
    04:00 +21°C° 0 mm 2 mps 682 mmHg 68%
    05:00 +20°C° 0 mm 2 mps 682 mmHg 71%
    06:00 +21°C° 0 mm 2 mps 682 mmHg 65%
    07:00 +23°C° 0 mm 2 mps 682 mmHg 60%
    08:00 +24°C° 0 mm 2 mps 683 mmHg 55%
    09:00 +26°C° 0 mm 2 mps 683 mmHg 47%
    10:00 +27°C° 0 mm 2 mps 683 mmHg 39%
    11:00 +29°C° 0 mm 2 mps 683 mmHg 32%
    12:00 +30°C° 0 mm 2 mps 683 mmHg 29%
    13:00 +31°C° 0 mm 2 mps 682 mmHg 26%
    14:00 +32°C° 0 mm 2 mps 682 mmHg 23%
    15:00 +31°C° 0 mm 3 mps 682 mmHg 23%
    16:00 +31°C° 0 mm 3 mps 682 mmHg 23%
    17:00 +32°C° 0 mm 4 mps 682 mmHg 23%
    18:00 +29°C° 0 mm 3 mps 682 mmHg 26%
    19:00 +28°C° 0 mm 3 mps 682 mmHg 29%
    20:00 +27°C° 0 mm 3 mps 682 mmHg 32%
    21:00 +26°C° 0 mm 2 mps 682 mmHg 38%
    22:00 +25°C° 0 mm 2 mps 682 mmHg 43%
    23:00 +25°C° 0 mm 2 mps 682 mmHg 48%

    24 Septiembre, Lunes

    Tiempo Temperatura Precipitaciones Viento Presión Humedad
    00:00 +24°C° 0 mm 2 mps 681 mmHg 52%
    01:00 +24°C° 0 mm 2 mps 681 mmHg 55%
    02:00 +23°C° 0 mm 2 mps 681 mmHg 59%
    03:00 +23°C° 0 mm 1 mps 681 mmHg 62%
    04:00 +22°C° 0 mm 1 mps 681 mmHg 65%
    05:00 +22°C° 0 mm 1 mps 681 mmHg 67%
    06:00 +23°C° 0 mm 1 mps 681 mmHg 62%
    07:00 +24°C° 0 mm 1 mps 682 mmHg 56%
    08:00 +25°C° 0 mm 1 mps 682 mmHg 51%
    09:00 +27°C° 0 mm 1 mps 682 mmHg 43%
    10:00 +28°C° 0 mm 1 mps 682 mmHg 36%
    11:00 +30°C° 0 mm 1 mps 682 mmHg 29%
    12:00 +31°C° 0 mm 1 mps 681 mmHg 27%
    13:00 +32°C° 0 mm 1 mps 681 mmHg 24%
    14:00 +34°C° 0 mm 2 mps 681 mmHg 22%
    15:00 +34°C° 0 mm 2 mps 681 mmHg 23%
    16:00 +34°C° 0 mm 3 mps 681 mmHg 23%
    17:00 +33°C° 0 mm 3 mps 681 mmHg 24%
    18:00 +31°C° 0 mm 3 mps 681 mmHg 27%
    19:00 +30°C° 0 mm 3 mps 681 mmHg 30%
    20:00 +28°C° 0 mm 3 mps 681 mmHg 33%
    21:00 +27°C° 0 mm 2 mps 681 mmHg 37%
    22:00 +26°C° 0 mm 2 mps 680 mmHg 40%
    23:00 +26°C° 0 mm 2 mps 680 mmHg 44%
    Mostrar más